{"data":{"norad_id":61215,"intl_designator":"2024-171R","name":"STARLINK-32436","alt_names":[],"object_type":"PAYLOAD","status":"ACTIVE","operator":null,"country":"US","launch_date":"2024-09-20","launch_site_code":"AFWTR","launch_vehicle":null,"mission":null,"orbit_class":"UNKNOWN","rcs_meters":null,"size_class":null,"mass_kg":null,"dimensions":null,"purposes":["comms"],"wikipedia_slug":null,"has_3d_model":false,"image_url":null,"decayed_at":null,"tle_current":{"epoch":"2026-09-21T20:16:08.153184Z","epoch_age_seconds":76001,"freshness":"FRESH","line1":"1 61215U 24171R   26264.84453881 -.00001187  00000+0 -23987-4 0  9992","line2":"2 61215  53.1606 127.5699 0001482  92.7864 267.3308 15.34395889112455","mean_motion":15.34395889,"eccentricity":0.0001482,"inclination_deg":53.1606,"raan_deg":127.5699,"arg_perigee_deg":92.7864,"mean_anomaly_deg":267.3308,"bstar":-2.3987e-5,"rev_number":11245,"period_min":93.848009521094,"perigee_km":461.70164465832,"apogee_km":463.72927332716,"semimajor_km":6840.8524589927,"source":"CELESTRAK","updated_at":"2026-09-22T09:00:49.342424Z"}}}